Weather History for Farmington, MO

Change the Weather History Date:

Sunday, December 2, 2012

  Actual Average Record
Temperature  
Mean Temperature 64 °F -  
Max Temperature 69 °F 47 °F 69 °F (2012)
Min Temperature 59 °F 32 °F 17 °F (2005)
Degree Days  
Heating Degree Days 1    
Growing Degree Days 14 (Base 50)    
Moisture  
Dew Point 56 °F    
Average Humidity 78    
Maximum Humidity 88    
Minimum Humidity 63    
Precipitation  
Precipitation 0.00 in - - ()
Sea Level Pressure  
Sea Level Pressure 30.06 in    
Wind  
Wind Speed 14 mph (SSW)    
Max Wind Speed 18 mph    
Max Gust Speed 29 mph    
Visibility 10 miles    
Events      
Averages and records for this station are not official NWS values.
T = Trace of Precipitation, MM = Missing Value Source: NWS Daily Summary

Daily Weather History Graph

Daily Weather History Graph

Search for Another Location

Airport:

Trip Planner

Search our weather history database for the weather conditions in past years. The results will help you decide how hot, cold, wet, or windy it might be!

Date:

Astronomy

Dec. 02, 2012 Rise Set
Actual Time 6:59 AM CST 4:42 PM CST
Civil Twilight 6:30 AM CST 5:11 PM CST
Nautical Twilight 5:58 AM CST 5:44 PM CST
Astronomical Twilight 5:26 AM CST 6:16 PM CST
Moon 8:28 PM CST (12/2) 9:51 AM CST (12/2)
Length of Visible Light 10h 41m
Length of Day
9h 43m
Waning Gibbous, 85% of the Moon is Illuminated
Dec 2
Waning Gibbous
Dec 6
Last Quarter
Dec 13
New
Dec 19
First Quarter
Dec 28
Full

Hourly Weather History & Observations

Time (CST) Temp. Dew Point Humidity Pressure Visibility Wind Dir Wind Speed Gust Speed Precip Events Conditions
12:15 AM 60.8 °F 50.0 °F 68% 30.04 in 10.0 mi South 17.3 mph 23.0 mph N/A   Overcast
12:35 AM 62.6 °F 50.0 °F 63% 30.03 in 10.0 mi South 15.0 mph 28.8 mph N/A   Overcast
12:55 AM 62.6 °F 51.8 °F 68% 30.03 in 10.0 mi South 17.3 mph 25.3 mph N/A   Overcast
1:15 AM 62.6 °F 51.8 °F 68% 30.03 in 10.0 mi South 16.1 mph 24.2 mph N/A   Overcast
1:35 AM 62.6 °F 51.8 °F 68% 30.02 in 10.0 mi South 18.4 mph 23.0 mph N/A   Overcast
1:55 AM 62.6 °F 51.8 °F 68% 30.03 in 10.0 mi South 17.3 mph 23.0 mph N/A   Overcast
2:15 AM 62.6 °F 51.8 °F 68% 30.03 in 10.0 mi SSW 17.3 mph 24.2 mph N/A   Overcast
2:35 AM 62.6 °F 51.8 °F 68% 30.03 in 10.0 mi SSW 15.0 mph 25.3 mph N/A   Overcast
2:55 AM 60.8 °F 51.8 °F 72% 30.02 in 10.0 mi South 17.3 mph 21.9 mph N/A   Overcast
3:15 AM 60.8 °F 51.8 °F 72% 30.03 in 10.0 mi South 16.1 mph 23.0 mph N/A   Mostly Cloudy
3:35 AM 60.8 °F 51.8 °F 72% 30.02 in 10.0 mi SSW 18.4 mph 24.2 mph N/A   Overcast
3:55 AM 60.8 °F 51.8 °F 72% 30.02 in 10.0 mi South 12.7 mph 20.7 mph N/A   Overcast
4:15 AM 60.8 °F 51.8 °F 72% 30.02 in 10.0 mi SSW 15.0 mph 19.6 mph N/A   Overcast
4:35 AM 60.8 °F 51.8 °F 72% 30.02 in 10.0 mi South 16.1 mph 19.6 mph N/A   Mostly Cloudy
4:55 AM 60.8 °F 51.8 °F 72% 30.02 in 10.0 mi South 16.1 mph 21.9 mph N/A   Mostly Cloudy
5:15 AM 60.8 °F 51.8 °F 72% 30.03 in 10.0 mi South 16.1 mph 21.9 mph N/A   Mostly Cloudy
5:35 AM 60.8 °F 51.8 °F 72% 30.04 in 10.0 mi SSW 16.1 mph 21.9 mph N/A   Mostly Cloudy
5:55 AM 59.0 °F 51.8 °F 77% 30.05 in 10.0 mi SSW 11.5 mph 19.6 mph N/A   Overcast
6:15 AM 59.0 °F 51.8 °F 77% 30.05 in 10.0 mi SSW 11.5 mph - N/A   Overcast
6:35 AM 59.0 °F 53.6 °F 82% 30.05 in 10.0 mi SSW 12.7 mph 17.3 mph N/A   Overcast
6:55 AM 59.0 °F 53.6 °F 82% 30.06 in 10.0 mi SSW 12.7 mph 17.3 mph N/A   Overcast
7:15 AM 59.0 °F 53.6 °F 82% 30.07 in 10.0 mi SSW 10.4 mph - N/A   Overcast
7:35 AM 59.0 °F 53.6 °F 82% 30.07 in 10.0 mi SSW 13.8 mph 19.6 mph N/A   Overcast
7:55 AM 60.8 °F 53.6 °F 77% 30.07 in 10.0 mi SSW 9.2 mph - N/A   Mostly Cloudy
8:15 AM 60.8 °F 53.6 °F 77% 30.08 in 10.0 mi SW 9.2 mph 16.1 mph N/A   Mostly Cloudy
8:35 AM 60.8 °F 55.4 °F 82% 30.09 in 10.0 mi SSW 8.1 mph - N/A   Overcast
8:55 AM 60.8 °F 55.4 °F 82% 30.09 in 10.0 mi SSW 11.5 mph 17.3 mph N/A   Overcast
9:15 AM 62.6 °F 55.4 °F 77% 30.09 in 10.0 mi SW 12.7 mph - N/A   Overcast
9:35 AM 62.6 °F 55.4 °F 77% 30.10 in 10.0 mi SSW 12.7 mph - N/A   Overcast
9:55 AM 62.6 °F 57.2 °F 82% 30.11 in 10.0 mi SSW 12.7 mph - N/A   Overcast
10:15 AM 62.6 °F 57.2 °F 82% 30.11 in 10.0 mi SW 11.5 mph 17.3 mph N/A   Overcast
10:35 AM 64.4 °F 57.2 °F 77% 30.10 in 10.0 mi SSW 13.8 mph - N/A   Overcast
10:55 AM 64.4 °F 57.2 °F 77% 30.10 in 10.0 mi SSW 11.5 mph - N/A   Overcast
11:15 AM 64.4 °F 57.2 °F 77% 30.09 in 10.0 mi SSW 10.4 mph - N/A   Overcast
11:35 AM 64.4 °F 57.2 °F 77% 30.09 in 10.0 mi SW 12.7 mph - N/A   Overcast
11:55 AM 64.4 °F 57.2 °F 77% 30.08 in 10.0 mi SSW 12.7 mph - N/A   Overcast
12:15 PM 64.4 °F 57.2 °F 77% 30.07 in 10.0 mi SSW 8.1 mph - N/A   Overcast
12:35 PM 66.2 °F 59.0 °F 78% 30.06 in 10.0 mi South 12.7 mph - N/A   Mostly Cloudy
12:55 PM 68.0 °F 59.0 °F 73% 30.05 in 10.0 mi SSW 11.5 mph 16.1 mph N/A   Mostly Cloudy
1:15 PM 68.0 °F 59.0 °F 73% 30.04 in 10.0 mi SSW 11.5 mph 17.3 mph N/A   Partly Cloudy
1:35 PM 69.8 °F 59.0 °F 68% 30.04 in 10.0 mi SSW 10.4 mph - N/A   Clear
1:55 PM 69.8 °F 59.0 °F 68% 30.03 in 10.0 mi SSW 10.4 mph 17.3 mph N/A   Clear
2:15 PM 69.8 °F 59.0 °F 68% 30.03 in 10.0 mi South 12.7 mph - N/A   Partly Cloudy
2:35 PM 69.8 °F 59.0 °F 68% 30.03 in 10.0 mi South 9.2 mph - N/A   Scattered Clouds
2:55 PM 68.0 °F 59.0 °F 73% 30.03 in 10.0 mi SSE 10.4 mph - N/A   Partly Cloudy
3:15 PM 66.2 °F 59.0 °F 78% 30.04 in 10.0 mi SSE 9.2 mph - N/A   Mostly Cloudy
3:35 PM 66.2 °F 59.0 °F 78% 30.04 in 10.0 mi South 10.4 mph - N/A   Mostly Cloudy
3:55 PM 66.2 °F 57.2 °F 73% 30.04 in 10.0 mi South 9.2 mph 16.1 mph N/A   Partly Cloudy
4:15 PM 64.4 °F 57.2 °F 77% 30.04 in 10.0 mi South 9.2 mph - N/A   Clear
4:35 PM 64.4 °F 57.2 °F 77% 30.04 in 10.0 mi South 9.2 mph - N/A   Clear
4:55 PM 62.6 °F 57.2 °F 82% 30.05 in 10.0 mi South 10.4 mph - N/A   Clear
5:15 PM 62.6 °F 57.2 °F 82% 30.05 in 10.0 mi South 9.2 mph - N/A   Partly Cloudy
5:35 PM 62.6 °F 57.2 °F 82% 30.05 in 10.0 mi South 10.4 mph - N/A   Mostly Cloudy
5:55 PM 62.6 °F 57.2 °F 82% 30.06 in 10.0 mi South 9.2 mph - N/A   Mostly Cloudy
6:15 PM 62.6 °F 57.2 °F 82% 30.06 in 10.0 mi South 10.4 mph - N/A   Overcast
6:35 PM 62.6 °F 57.2 °F 82% 30.05 in 10.0 mi South 11.5 mph - N/A   Scattered Clouds
6:55 PM 62.6 °F 57.2 °F 82% 30.06 in 10.0 mi South 10.4 mph - N/A   Mostly Cloudy
7:15 PM 62.6 °F 57.2 °F 82% 30.06 in 10.0 mi South 11.5 mph - N/A   Overcast
7:55 PM 62.6 °F 57.2 °F 82% 30.06 in 10.0 mi South 8.1 mph - N/A   Overcast
8:15 PM 62.6 °F 59.0 °F 88% 30.06 in 10.0 mi South 10.4 mph - N/A   Overcast
8:35 PM 62.6 °F 59.0 °F 88% 30.07 in 10.0 mi South 12.7 mph - N/A   Overcast
8:55 PM 62.6 °F 59.0 °F 88% 30.07 in 10.0 mi South 10.4 mph - N/A   Overcast
9:15 PM 62.6 °F 59.0 °F 88% 30.07 in 10.0 mi South 12.7 mph - N/A   Overcast
9:35 PM 62.6 °F 59.0 °F 88% 30.07 in 10.0 mi South 9.2 mph - N/A   Overcast
9:55 PM 62.6 °F 59.0 °F 88% 30.07 in 10.0 mi South 11.5 mph - N/A   Overcast
10:15 PM 62.6 °F 59.0 °F 88% 30.06 in 10.0 mi South 11.5 mph 16.1 mph N/A   Overcast
10:35 PM 62.6 °F 59.0 °F 88% 30.07 in 10.0 mi South 10.4 mph 16.1 mph N/A   Overcast
10:55 PM 62.6 °F 59.0 °F 88% 30.07 in 10.0 mi SSW 10.4 mph 18.4 mph N/A   Overcast
11:15 PM 62.6 °F 59.0 °F 88% 30.07 in 10.0 mi SSW 12.7 mph - N/A   Overcast
11:35 PM 64.4 °F 59.0 °F 83% 30.07 in 10.0 mi SSW 12.7 mph 18.4 mph N/A   Overcast
11:55 PM 62.6 °F 59.0 °F 88% 30.07 in 10.0 mi South 11.5 mph - N/A   Overcast